Station NSXA2 - Nikiski, AK Image indicating link to RSS feed of recent meteorological observations for station NSXA2


Conditions at NSXA2 as of
(2:05 am AKDT)
1005 GMT on 04/14/2024:
     

Click on the graph icon in the table below to see a time series plot of the last five days of that observation.

5-day plot - Wind Direction Wind Direction (WDIR): N ( 350 deg true )
5-day plot - Wind Speed Wind Speed (WSPD): 5 kts
5-day plot - Wind Gust Wind Gust (GST): 9 kts
5-day plot - Air Temperature Air Temperature (ATMP): 31.6 °F
5-day plot - Dew Point Dew Point (DEWP): 23.9 °F
5-day plot - Wind Chill Wind Chill (CHILL): 25.9 °F
5-day plot - Wind Speed at 10 Meters Wind Speed at 10 meters (WSPD10M): 6 kts
5-day plot - Wind Speed at 20 Meters Wind Speed at 20 meters (WSPD20M): 6 kts
5-day plot -  Wind Speed, Wind Gust and Atmospheric Pressure Combined plot of Wind Speed, Gust, and Air Pressure
Previous observations
TIME
(AKDT)
5-day plot - Wind Direction
WDIR
 
5-day plot - Wind Speed
WSPD
kts
5-day plot - Wind Gust
GST
kts
5-day plot - Wave Height
WVHT
ft
5-day plot - Dominant Wave Period
DPD
sec
5-day plot - Average Wave Period
APD
sec
5-day plot - Mean Wave Direction
MWD
 
5-day plot - Atmospheric Pressure
PRES
in
5-day plot - Pressure Tendency
PTDY
in
5-day plot - Air Temperature
ATMP
°F
5-day plot - Water Temperature
WTMP
°F
5-day plot - Dew Point
DEWP
°F
5-day plot - Salinity
SAL
psu
5-day plot - Visibility
VIS
nmi
5-day plot - Tide (above MLLW)
TIDE
ft
2024-04-14 01:55 am N 4 7------ 31.6- 24.1---
2024-04-14 01:44 am N 5 7------ 31.6- 23.9---
2024-04-14 01:34 am N 5 7------ 31.8- 24.1---
2024-04-14 01:24 am N 4 7------ 31.6- 23.4---
2024-04-14 01:14 am N 5 9------ 31.8- 23.5---
2024-04-14 01:04 am N 5 8------ 31.8- 23.9---
2024-04-14 12:54 amNNW 5 8------ 32.0- 24.4---
2024-04-14 12:35 am NW 5 8------ 32.0- 25.0---
2024-04-14 12:24 am NW 5 9------ 32.2- 24.4---
2024-04-14 12:16 am NW 6 10------ 32.4- 24.4---
2024-04-14 12:05 am NW 5 9------ 32.4- 24.4---
2024-04-13 11:55 pm NW 5 9------ 32.5- 24.3---
2024-04-13 11:45 pm NW 5 8------ 32.7- 24.3---
2024-04-13 11:34 pm NW 5 10------ 32.9- 24.3---
2024-04-13 11:25 pm NW 5 9------ 32.9- 24.8---
2024-04-13 11:14 pmNNW 5 8------ 33.3- 24.3---
2024-04-13 11:04 pmNNW 4 9------ 33.4- 24.1---
2024-04-13 10:54 pm NW 3 5------ 33.4- 24.4---
2024-04-13 10:44 pmNNW 4 6------ 33.8- 25.0---
2024-04-13 10:34 pmNNW 4 7------ 34.2- 24.6---
2024-04-13 10:24 pmWNW 3 5------ 34.0- 25.0---
2024-04-13 10:14 pm NW 2 4------ 34.3- 24.4---
2024-04-13 10:04 pmWNW 3 5------ 34.7- 24.1---
2024-04-13 09:54 pm W 3 6------ 34.7- 24.1---
2024-04-13 09:44 pm W 4 7------ 34.9- 23.5---
2024-04-13 09:34 pmWNW 5 10------ 35.1- 22.5---
2024-04-13 09:24 pm W 6 11------ 34.7- 22.8---
2024-04-13 09:15 pm W 8 13------ 35.4- 21.4---
2024-04-13 09:04 pm W 9 18------ 35.1- 21.4---
2024-04-13 08:54 pm W 8 15------ 35.8- 21.2---
2024-04-13 08:45 pm W 8 13------ 36.3- 20.5---
2024-04-13 08:35 pm W 7 14------ 36.9- 20.5---
2024-04-13 08:25 pm W 7 13------ 36.9- 20.7---
2024-04-13 08:15 pm W 7 13------ 36.7- 21.4---
2024-04-13 08:05 pm W 8 14------ 36.7- 21.9---
2024-04-13 07:54 pm W 7 13------ 37.0- 23.0---
2024-04-13 07:44 pm W 6 11------ 37.4- 22.6---
2024-04-13 07:34 pm W 6 12------ 37.4- 22.3---
2024-04-13 07:24 pm W 7 12------ 37.2- 22.3---
2024-04-13 07:14 pm W 7 16------ 37.2- 21.9---
2024-04-13 07:04 pm W 7 15------ 37.2- 21.7---
2024-04-13 06:54 pm W 8 15------ 37.4- 21.4---
2024-04-13 06:44 pm W 8 14------ 37.2- 21.6---
2024-04-13 06:34 pm W 8 15------ 37.9- 21.2---
2024-04-13 06:25 pm W 7 11------ 38.1- 20.5---
2024-04-13 06:14 pm W 7 11------ 38.1- 21.6---
2024-04-13 06:05 pm W 6 11------ 38.5- 23.4---
2024-04-13 05:55 pm W 5 9------ 38.5- 23.5---
2024-04-13 05:44 pm W 5 9------ 38.5- 23.2---
2024-04-13 05:34 pm W 5 10------ 38.5- 23.9---
2024-04-13 05:25 pm W 4 8------ 39.0- 24.8---
2024-04-13 05:14 pm W 4 8------ 38.8- 26.1---
2024-04-13 05:04 pm W 4 8------ 38.7- 25.3---
2024-04-13 04:54 pm W 4 8------ 38.3- 25.9---
2024-04-13 04:44 pm W 4 7------ 38.7- 25.0---
2024-04-13 04:34 pm W 4 7------ 38.7- 24.3---
2024-04-13 04:24 pm W 4 7------ 38.7- 23.5---
2024-04-13 04:14 pm W 4 8------ 38.3- 23.2---
2024-04-13 03:55 pm W 4 7------ 37.6- 23.7---
2024-04-13 03:44 pm W 4 8------ 37.2- 23.5---
2024-04-13 03:35 pmWNW 3 7------ 36.9- 24.6---
2024-04-13 03:24 pmWNW 3 8------ 36.7- 24.4---
2024-04-13 03:14 pm W 4 8------ 36.3- 23.5---
2024-04-13 03:04 pm W 3 7------ 36.5- 24.1---
2024-04-13 02:54 pmWNW 3 7------ 36.3- 24.3---
2024-04-13 02:44 pmWNW 3 6------ 36.3- 24.6---
2024-04-13 02:35 pm W 2 5------ 36.3- 26.2---
2024-04-13 02:25 pmWNW 3 5------ 35.4- 26.4---
2024-04-13 02:14 pmWNW 3 5------ 34.9- 26.2---
2024-04-13 02:04 pmWNW 3 6------ 35.1- 27.1---
2024-04-13 01:54 pmWNW 3 6------ 34.7- 26.8---
2024-04-13 01:44 pm NW 3 10------ 34.5- 25.9---
2024-04-13 01:35 pmWNW 3 5------ 34.5- 26.2---
2024-04-13 01:24 pmWNW 3 6------ 34.3- 27.3---
2024-04-13 01:15 pmWNW 3 6------ 34.2- 27.0---
2024-04-13 01:05 pmWNW 3 5------ 34.3- 27.0---
2024-04-13 12:54 pmWNW 3 4------ 34.2- 26.4---
2024-04-13 12:45 pmWNW 2 4------ 34.2- 26.1---
2024-04-13 12:34 pmWNW 2 4------ 34.0- 26.1---
2024-04-13 12:24 pmWNW 3 5------ 33.6- 25.5---
2024-04-13 12:15 pmWNW 3 7------ 33.3- 25.7---
2024-04-13 12:04 pm NW 4 7------ 32.7- 26.1---
2024-04-13 11:54 amNNW 5 7------ 32.7- 26.1---
2024-04-13 11:44 amNNW 6 9------ 32.4- 25.3---
2024-04-13 11:35 amNNW 6 10------ 32.2- 24.8---
2024-04-13 11:24 amNNW 7 11------ 32.2- 24.8---
2024-04-13 11:14 amNNW 7 11------ 32.0- 24.6---
2024-04-13 11:05 amNNW 8 12------ 31.8- 24.4---
2024-04-13 10:55 am N 11 16------ 31.8- 24.1---
2024-04-13 10:44 am N 12 19------ 31.8- 23.4---
2024-04-13 10:35 am N 12 20------ 31.8- 23.7---
2024-04-13 10:24 am N 7 15------ 32.0- 28.8---
2024-04-13 10:14 am N 6 9------ 31.8- 29.1---
2024-04-13 10:04 am N 6 9------ 31.8- 29.1---
2024-04-13 09:54 am N 6 9------ 31.6- 28.9---
2024-04-13 09:44 am N 6 9------ 31.6- 29.1---
2024-04-13 09:34 am N 5 9------ 31.8- 29.3---
2024-04-13 09:24 am N 5 9------ 31.6- 29.3---
2024-04-13 09:15 am N 7 10------ 31.3- 29.3---
2024-04-13 09:04 am N 6 10------ 31.1- 29.3---
2024-04-13 08:55 am N 4 8------ 30.9- 29.3---
2024-04-13 08:45 amNNE 4 8------ 30.7- 29.3---
2024-04-13 08:34 am N 4 7------ 30.6- 29.3---
2024-04-13 08:25 am N 5 9------ 30.6- 29.1---
2024-04-13 08:15 am N 6 9------ 30.4- 28.9---
2024-04-13 08:05 am N 7 10------ 30.6- 28.9---
2024-04-13 07:55 am N 8 14------ 30.2- 28.9---
2024-04-13 07:44 am N 7 13------ 30.4- 29.1---
2024-04-13 07:34 amNNW 8 13------ 30.6- 29.3---
2024-04-13 07:24 am N 9 13------ 30.4- 28.9---
2024-04-13 07:14 am N 8 14------ 30.4- 29.1---
2024-04-13 07:04 am N 6 11------ 30.2- 28.9---
2024-04-13 06:54 am N 4 7------ 30.2- 28.9---
2024-04-13 06:44 am N 4 7------ 30.2- 28.9---
2024-04-13 06:34 am N 5 8------ 30.0- 28.8---
2024-04-13 06:24 am N 6 9------ 30.0- 28.6---
2024-04-13 06:14 am N 6 10------ 30.0- 28.6---
2024-04-13 06:04 am N 6 10------ 30.0- 28.2---
2024-04-13 05:54 am N 6 11------ 30.4- 28.0---
2024-04-13 05:44 amNNE 4 10------ 30.2- 28.0---
2024-04-13 05:34 amNNE 5 8------ 30.2- 27.9---
2024-04-13 05:24 amNNE 6 9------ 30.2- 27.9---
2024-04-13 05:14 am NE 5 10------ 30.2- 27.3---
2024-04-13 05:04 am NE 5 8------ 30.2- 26.6---
2024-04-13 04:54 amENE 5 6------ 30.2- 26.1---
2024-04-13 04:44 amENE 6 8------ 30.6- 26.1---
2024-04-13 04:34 amENE 5 8------ 30.6- 25.9---
2024-04-13 04:24 am NE 6 9------ 30.9- 26.4---
2024-04-13 04:14 amNNE 5 10------ 30.9- 26.1---
2024-04-13 04:04 am NE 5 7------ 30.7- 25.5---
2024-04-13 03:54 am NE 5 7------ 30.7- 25.2---
2024-04-13 03:44 am NE 5 6------ 30.9- 25.3---
2024-04-13 03:34 am NE 4 7------ 30.9- 25.7---
2024-04-13 03:25 am NE 5 7------ 30.7- 25.5---
2024-04-13 03:14 am NE 5 7------ 30.6- 25.0---
2024-04-13 03:04 am NE 4 6------ 30.6- 24.8---
2024-04-13 02:55 am NE 3 5------ 30.4- 24.6---
2024-04-13 02:45 am NE 3 5------ 30.4- 24.6---
2024-04-13 02:34 am NE 3 4------ 30.4- 24.6---
2024-04-13 02:25 amENE 3 5------ 30.6- 24.8---
2024-04-13 02:15 amENE 2 4------ 30.7- 25.0---
2024-04-13 02:04 amSSE 2 5------ 30.9- 24.8---
2024-04-13 01:54 am SE 5 7------ 30.9- 24.6---